Location: North Evanston
(42.0634°N, 87.6976°W)
Time: 11:36:25
(UTC+00:00)

Vanguard 3 - Pass Details

Date: 13 May 2026
Orbit: 507 x 3204 km, 33.3° (Epoch: 11 June)

Event Time Altitude Azimuth Distance (km) Brightness Sun altitude
Rises 21:18:15 0° 252° (WSW) 7,010 12.8 39.7°
Reaches altitude 10° 21:22:53 10° 249° (WSW) 6,091 12.8 38.9°
Maximum altitude 21:42:04 63° 175° (S) 3,171 10.7 35.4°
Drops below altitude 10° 21:56:25 10° 100° (E) 4,722 10.6 32.7°
Sets 21:59:30 0° 97° (E) 5,421 10.8 32.1°
